OPS 4682 DEB, 38446

Orbit data source: Space-Track

OPS 4682 DEB, 38446 is space debris in LEO originally from a launch on Sat, 03 Apr 1965 UTC launched from the Air Force Western Test Range (AFWTR). Debris objects in space refer to the collection of defunct objects orbiting the Earth. Examples of debris include non-operational satellites, rocket bodies, and fragments generated from explosions, collisions, or faulty payload assembly.

Loading next visibility...
Identifier
38446, 1965-027FB
Orbit
LEO
Country
Flag of USUS
Related business
Manufacturer
Unknown
Mission
Spacecraft
Bus & Motor
Unknown
Mass
Unknown
Launch date (UTC)
1965-04-03 (61 years ago)
Launch vehicle
Unknown
Launch site
Air Force Western Test Range (AFWTR)
Object type
Payload
Rocket body
Debris
Shape & HBR
Unknown shape, 0.1 m
Radar Cross Section
Small (<0.1 m²)

Expand to show TLE details & history
Last TLE update: 1 day ago

TLE from 1 day ago
0 OPS 4682 DEB
1 38446U 65027FB  26263.64000411  .00000081  00000-0  23928-3 0  9996
2 38446  90.2758  30.2733 0018729 157.9992 202.1939 13.01373070599694
Epoch: 2026-09-20T15:21Z
TLE epoch observation values (Epoch: 2026-09-20T15:21:36.355Z)
Latitude
0.00001°
Longitude
160.34053°
Altitude
1,272.843 km
Speed
7.213 km/s
True Right ascension
02h 01m 05s
True Declination
0° 00' 00"
Sunlit
Object was in full shadow at epoch
Visualization orbit readout
Latitude
Unknown
Longitude
Unknown
Altitude
Unknown
Speed
Unknown
Apparent Right ascension
Unknown
Apparent Declination
Unknown
Sunlit
N/A
Visualization observer readout
Local Sidereal Time
10:58:05
Azimuth
Unknown
Elevation
Unknown
Doppler factor
Unknown
Orbital elements
Apogee altitude
1,268.131 km
Perigee altitude
1,239.543 km
Semi-major axis
7,631.974 km
Eccentricity
0.00187
Inclination
90.2758°
RAAN
30.2733°
Arg. of periapsis
157.9992°
True anomaly
202.113°
Mean anomaly
202.1939°
Eccentric anomaly
202.15343°
Mean motion
3.25528 °/min
Orbital period
110.59 mins
BSTAR
0.00023928
Loading maneuver chart data...
Computing Atmospheric mass density...
Loading historical data...
Loading historical data...
Loading historical data...
Loading historical data...
Loading historical data...
Loading historical data...
Loading historical data...

Documentation

Showing up to 5 results
|